Previsão horária em Ababuj

Hoje, 10 Abril, Sábado

Tempo Temperatura Precipitação Vento Pressão Humidade
00:00 +5°C° 0 mm 1 m/s 645 mmHg 85%
01:00 +5°C° 0 mm 1 m/s 645 mmHg 85%
02:00 +5°C° 0 mm 1 m/s 644 mmHg 85%
03:00 +5°C° 0 mm 1 m/s 644 mmHg 85%
04:00 +5°C° 0 mm 1 m/s 644 mmHg 84%
05:00 +6°C° 0 mm 1 m/s 644 mmHg 83%
06:00 +6°C° 0 mm 1 m/s 644 mmHg 81%
07:00 +7°C° 0 mm 1 m/s 644 mmHg 75%
08:00 +9°C° 0 mm 1 m/s 644 mmHg 70%
09:00 +9°C° 0 mm 2 m/s 645 mmHg 64%
10:00 +10°C° 0.1 mm 2 m/s 645 mmHg 63%
11:00 +10°C° 0.1 mm 2 m/s 644 mmHg 61%
12:00 +12°C° 0.1 mm 2 m/s 644 mmHg 60%
13:00 +11°C° 0.4 mm 3 m/s 644 mmHg 59%
14:00 +12°C° 0.4 mm 3 m/s 644 mmHg 57%
15:00 +12°C° 0.4 mm 3 m/s 643 mmHg 56%
16:00 +11°C° 0.5 mm 3 m/s 643 mmHg 61%
17:00 +10°C° 0.5 mm 3 m/s 643 mmHg 67%
18:00 +9°C° 0.5 mm 3 m/s 643 mmHg 73%
19:00 +9°C° 0.2 mm 3 m/s 643 mmHg 77%
20:00 +8°C° 0.2 mm 3 m/s 643 mmHg 81%
21:00 +7°C° 0.2 mm 2 m/s 643 mmHg 85%
22:00 +7°C° 0.1 mm 3 m/s 643 mmHg 85%
23:00 +7°C° 0.1 mm 3 m/s 643 mmHg 85%

Amanhã, 11 Abril, Domingo

Tempo Temperatura Precipitação Vento Pressão Humidade
00:00 +7°C° 0.1 mm 3 m/s 643 mmHg 85%
01:00 +7°C° 0.1 mm 3 m/s 643 mmHg 84%
02:00 +7°C° 0.1 mm 3 m/s 642 mmHg 83%
03:00 +7°C° 0.1 mm 3 m/s 642 mmHg 82%
04:00 +5°C° 0 mm 3 m/s 642 mmHg 85%
05:00 +5°C° 0 mm 3 m/s 642 mmHg 87%
06:00 +4°C° 0 mm 3 m/s 642 mmHg 90%
07:00 +5°C° 0.2 mm 4 m/s 643 mmHg 86%
08:00 +6°C° 0.2 mm 4 m/s 643 mmHg 82%
09:00 +7°C° 0.2 mm 5 m/s 643 mmHg 78%
10:00 +6°C° 0.8 mm 5 m/s 643 mmHg 79%
11:00 +6°C° 0.8 mm 5 m/s 644 mmHg 80%
12:00 +6°C° 0.8 mm 4 m/s 644 mmHg 81%
13:00 +6°C° 0.2 mm 4 m/s 644 mmHg 82%
14:00 +6°C° 0.2 mm 4 m/s 644 mmHg 84%
15:00 +5°C° 0.2 mm 3 m/s 644 mmHg 85%
16:00 +5°C° 0.1 mm 3 m/s 644 mmHg 86%
17:00 +4°C° 0.1 mm 3 m/s 645 mmHg 87%
18:00 +4°C° 0.1 mm 3 m/s 645 mmHg 88%
19:00 +3°C° 0 mm 4 m/s 646 mmHg 87%
20:00 +3°C° 0 mm 4 m/s 646 mmHg 87%
21:00 +1°C° 0 mm 4 m/s 647 mmHg 87%
22:00 0°C° 0 mm 4 m/s 647 mmHg 87%
23:00 -1°C° 0 mm 4 m/s 647 mmHg 87%

Depois de amanhã, 12 Abril, Segunda-feira

Tempo Temperatura Precipitação Vento Pressão Humidade
00:00 -1°C° 0 mm 4 m/s 647 mmHg 87%
01:00 -2°C° 0 mm 4 m/s 648 mmHg 87%
02:00 -2°C° 0 mm 5 m/s 648 mmHg 88%
03:00 -4°C° 0 mm 5 m/s 648 mmHg 88%
04:00 -4°C° 0 mm 5 m/s 648 mmHg 86%
05:00 -5°C° 0 mm 5 m/s 648 mmHg 85%
06:00 -5°C° 0 mm 4 m/s 649 mmHg 83%
07:00 -4°C° 0 mm 5 m/s 649 mmHg 72%
08:00 -3°C° 0 mm 6 m/s 649 mmHg 61%
09:00 -1°C° 0 mm 6 m/s 650 mmHg 50%
10:00 0°C° 0 mm 7 m/s 650 mmHg 45%
11:00 +3°C° 0 mm 7 m/s 650 mmHg 41%
12:00 +4°C° 0 mm 8 m/s 650 mmHg 37%
13:00 +5°C° 0 mm 7 m/s 650 mmHg 36%
14:00 +5°C° 0 mm 7 m/s 650 mmHg 35%
15:00 +6°C° 0 mm 7 m/s 650 mmHg 35%
16:00 +5°C° 0 mm 6 m/s 650 mmHg 39%
17:00 +4°C° 0 mm 6 m/s 650 mmHg 43%
18:00 +3°C° 0 mm 5 m/s 650 mmHg 47%
19:00 +1°C° 0 mm 4 m/s 650 mmHg 53%
20:00 +1°C° 0 mm 3 m/s 650 mmHg 59%
21:00 +1°C° 0 mm 1 m/s 650 mmHg 65%
22:00 +1°C° 0 mm 1 m/s 650 mmHg 65%
23:00 +1°C° 0 mm 1 m/s 650 mmHg 65%

13 Abril, Terça-feira

Tempo Temperatura Precipitação Vento Pressão Humidade
00:00 +1°C° 0 mm 1 m/s 650 mmHg 65%
01:00 0°C° 0 mm 1 m/s 650 mmHg 61%
02:00 0°C° 0 mm 1 m/s 650 mmHg 57%
03:00 0°C° 0 mm 1 m/s 649 mmHg 53%
04:00 0°C° 0 mm 1 m/s 649 mmHg 51%
05:00 0°C° 0 mm 1 m/s 649 mmHg 49%
06:00 +1°C° 0 mm 1 m/s 649 mmHg 47%
07:00 +3°C° 0 mm 1 m/s 650 mmHg 40%
08:00 +5°C° 0 mm 1 m/s 650 mmHg 33%
09:00 +7°C° 0 mm 1 m/s 651 mmHg 25%
10:00 +9°C° 0 mm 1 m/s 651 mmHg 23%
11:00 +9°C° 0 mm 2 m/s 651 mmHg 21%
12:00 +10°C° 0 mm 2 m/s 651 mmHg 19%
13:00 +12°C° 0 mm 2 m/s 651 mmHg 19%
14:00 +13°C° 0 mm 2 m/s 651 mmHg 19%
15:00 +13°C° 0 mm 2 m/s 651 mmHg 19%
16:00 +12°C° 0 mm 2 m/s 650 mmHg 26%
17:00 +10°C° 0 mm 2 m/s 650 mmHg 32%
18:00 +9°C° 0 mm 3 m/s 650 mmHg 38%
19:00 +7°C° 0 mm 2 m/s 650 mmHg 45%
20:00 +6°C° 0 mm 2 m/s 650 mmHg 52%
21:00 +5°C° 0 mm 1 m/s 650 mmHg 59%
22:00 +5°C° 0 mm 1 m/s 649 mmHg 63%
23:00 +5°C° 0 mm 1 m/s 649 mmHg 67%

14 Abril, Quarta-feira

Tempo Temperatura Precipitação Vento Pressão Humidade
00:00 +5°C° 0 mm 1 m/s 649 mmHg 71%
01:00 +4°C° 0 mm 1 m/s 649 mmHg 74%
02:00 +4°C° 0 mm 1 m/s 648 mmHg 76%
03:00 +4°C° 0 mm 1 m/s 648 mmHg 78%
04:00 +4°C° 0 mm 1 m/s 648 mmHg 78%
05:00 +4°C° 0 mm 1 m/s 648 mmHg 78%
06:00 +4°C° 0 mm 1 m/s 648 mmHg 78%
07:00 +6°C° 0 mm 1 m/s 648 mmHg 69%
08:00 +8°C° 0 mm 1 m/s 648 mmHg 61%
09:00 +10°C° 0 mm 1 m/s 649 mmHg 53%
10:00 +11°C° 0 mm 1 m/s 649 mmHg 48%
11:00 +13°C° 0 mm 2 m/s 649 mmHg 43%
12:00 +14°C° 0 mm 2 m/s 649 mmHg 38%
13:00 +14°C° 0 mm 2 m/s 649 mmHg 38%
14:00 +13°C° 0 mm 3 m/s 648 mmHg 38%
15:00 +14°C° 0 mm 3 m/s 648 mmHg 38%
16:00 +12°C° 0 mm 3 m/s 647 mmHg 46%
17:00 +11°C° 0 mm 3 m/s 647 mmHg 53%
18:00 +9°C° 0 mm 3 m/s 647 mmHg 61%
19:00 +8°C° 0 mm 3 m/s 647 mmHg 66%
20:00 +7°C° 0 mm 2 m/s 647 mmHg 72%
21:00 +7°C° 0 mm 1 m/s 647 mmHg 77%
22:00 +7°C° 0 mm 1 m/s 647 mmHg 79%
23:00 +7°C° 0 mm 1 m/s 647 mmHg 81%

15 Abril, Quinta-feira

Tempo Temperatura Precipitação Vento Pressão Humidade
00:00 +6°C° 0 mm 1 m/s 647 mmHg 83%
01:00 +6°C° 0 mm 1 m/s 647 mmHg 85%
02:00 +5°C° 0 mm 1 m/s 646 mmHg 88%
03:00 +5°C° 0 mm 1 m/s 646 mmHg 90%
04:00 +4°C° 0 mm 1 m/s 646 mmHg 90%
05:00 +4°C° 0 mm 1 m/s 646 mmHg 90%
06:00 +4°C° 0 mm 1 m/s 646 mmHg 90%
07:00 +5°C° 0 mm 1 m/s 646 mmHg 85%
08:00 +5°C° 0 mm 2 m/s 647 mmHg 79%
09:00 +5°C° 0 mm 2 m/s 647 mmHg 74%
10:00 +6°C° 0 mm 2 m/s 647 mmHg 69%
11:00 +7°C° 0 mm 3 m/s 647 mmHg 64%
12:00 +8°C° 0 mm 3 m/s 647 mmHg 60%
13:00 +7°C° 0 mm 4 m/s 646 mmHg 62%
14:00 +6°C° 0 mm 4 m/s 646 mmHg 64%
15:00 +6°C° 0 mm 4 m/s 646 mmHg 66%
16:00 +5°C° 0 mm 3 m/s 646 mmHg 68%
17:00 +5°C° 0 mm 3 m/s 646 mmHg 70%
18:00 +4°C° 0 mm 3 m/s 646 mmHg 73%
19:00 +4°C° 0 mm 2 m/s 646 mmHg 75%
20:00 +5°C° 0 mm 1 m/s 646 mmHg 78%
21:00 +4°C° 0 mm 1 m/s 646 mmHg 80%
22:00 +4°C° 0 mm 1 m/s 646 mmHg 81%
23:00 +3°C° 0 mm 1 m/s 646 mmHg 83%
Mostrar mais